Simultaneous Nadir Overpasses (SNOs) Predictions

Prediction of SNOs over PacNW region [( 10.00, 139.50) to ( 22.70, 165.60)] between NOAA-19 and NPP Satellites:

Table of predicted SNOs over PacNW region for the next 30.0 days since TLE Epoch: 8/29/2014
Index Date (NOAA-19) Time (NOAA-19) NOAA-19 Lat,Lon Date (NPP) Time (NPP) NPP Lat,Lon Distance(km) Time Diff (sec)
1 09/01/2014 16:40:50 12.86, 140.60 09/01/2014 16:38:02 13.88, 135.95 515.67 168
2 09/14/2014 03:21:12 19.84, 155.36 09/14/2014 03:22:01 18.53, 149.89 592.86 49
3 09/14/2014 15:57:46 11.19, 151.24 09/14/2014 15:54:29 12.18, 146.62 514.78 197
4 09/27/2014 04:20:28 22.65, 140.19 09/27/2014 04:20:19 21.57, 134.85 563.14 9
5 09/27/2014 15:14:27 10.03, 162.03 09/27/2014 15:10:51 10.67, 157.35 516.80 216
